Content
SEND FEEDBACK

Daily
Averages
Monthly
Summary
United States of America

ROME, GEORGIA


Home > North America > United States > Georgia
Elevation: 644 feet     Latitude: 34 20N     Longitude: 085 09W

WEATHER
 
SELECT A DAY
Number of Records: 213,440;   Date Range: 1/1/95 - 9/30/14
 
SHARE

PRINT THIS DATA

[ ← Previous Day ]
WEATHER ALMANAC - MARCH 4, 2014
[ Next Day → ]
[ °C ]   °F
Weather ElementAverageHighLow
Temperature37.1 °F46 °F (2:53 pm)28.9 °F (5:53 am)
Dewpoint29.9 °F34 °F (1:53 pm)26.1 °F (1:53 am)
Humidity76.3 %93 % (7:36 am)58 % (3:53 pm)
Barometer30.17 in30.22 in (9:53 am)30.13 in (2:53 pm)
Wind Speed4.7 mph8.1 mph (1:53 am)
Weather ElementAverage
Visibility8.2 mi
Wind DirectionENE (75.2 °)

Weather ElementTotal
Precipitation---
Heating Degree Days27.6 (Base 65)
Averaged from 27 records on March 4, 2014
WEATHER CONDITIONS BREAKOUT
WIND DIRECTION BREAKOUT
WEATHER BY HOUR - MARCH 4, 2014
[ °C ]   °F
Local TimeTemperatureDewpointHumidityBarometerVisibilityWind DirectionWind SpeedGust SpeedPrecipitationEventsConditions
1:53 AM30.0 °F26.1 °F85 %30.18 in9.0 miNNE (20°)8.1 mphOvercast
2:53 AM30.0 °F26.1 °F85 %30.18 in10.0 miNNE (20°)5.8 mphOvercast
3:53 AM30.0 °F26.1 °F85 %30.17 in10.0 miNorth (360°)5.8 mphOvercast
4:53 AM30.0 °F26.1 °F85 %30.18 in8.0 miNorth (360°)8.1 mphOvercast
5:53 AM28.9 °F27.0 °F92 %30.21 in6.0 miNNW (340°)5.8 mphOvercast
6:53 AM30.0 °F28.0 °F92 %30.21 in4.0 miNorth (10°)4.6 mphOvercast
7:36 AM30.2 °F28.4 °F93 %30.21 in4.0 miNorth (10°)3.5 mphOvercast
7:48 AM30.2 °F28.4 °F93 %30.20 in4.0 miNNE (20°)4.6 mphOvercast
7:53 AM30.0 °F28.0 °F92 %30.21 in4.0 miNNE (20°)4.6 mphOvercast
8:53 AM32.0 °F28.9 °F88 %30.21 in5.0 miNE (40°)6.9 mphOvercast
9:53 AM34.0 °F30.0 °F85 %30.22 in7.0 miNorth (10°)4.6 mphOvercast
10:16 AM35.6 °F30.2 °F81 %30.21 in7.0 miVariable3.5 mphOvercast
10:34 AM35.6 °F30.2 °F81 %30.20 in8.0 miNE (40°)5.8 mphOvercast
10:53 AM35.1 °F30.0 °F82 %30.21 in7.0 miNE (40°)6.9 mphOvercast
11:53 AM39.0 °F32.0 °F76 %30.21 in9.0 miNE (40°)8.1 mphOvercast
12:53 PM42.1 °F33.1 °F70 %30.18 in10.0 miVariable5.8 mphOvercast
1:53 PM45.0 °F34.0 °F65 %30.14 in10.0 miVariable5.8 mphOvercast
2:53 PM46.0 °F34.0 °F63 %30.13 in10.0 miCalmOvercast
3:53 PM46.0 °F32.0 °F58 %30.13 in10.0 miSE (130°)4.6 mphOvercast
4:53 PM45.0 °F32.0 °F60 %30.14 in10.0 miSouth (180°)3.5 mphOvercast
5:53 PM45.0 °F30.9 °F58 %30.15 in10.0 miSE (140°)4.6 mphOvercast
6:53 PM44.1 °F30.0 °F58 %30.14 in10.0 miENE (70°)4.6 mphOvercast
7:53 PM43.0 °F30.9 °F62 %30.14 in10.0 miEast (80°)3.5 mphOvercast
8:53 PM42.1 °F30.0 °F62 %30.13 in10.0 miEast (90°)3.5 mphMostly Cloudy
9:53 PM42.1 °F32.0 °F67 %30.14 in10.0 miCalmOvercast
10:53 PM41.0 °F32.0 °F70 %30.14 in10.0 miNorth (10°)3.5 mphClear
11:53 PM39.9 °F32.0 °F73 %30.15 in10.0 miCalmClear
Hourly data recorded from KRMG, located miles away from Rome, Georgia







STORIES FROM OUR PARTNERS